Weather History for KLVM - March, 2013

Change the Weather History Date:

Sunday, March 10, 2013

  Actual Average Record
Temperature  
Mean Temperature 41 °F 34 °F  
Max Temperature 52 °F 46 °F 71 °F (1972)
Min Temperature 30 °F 23 °F -11 °F (1956)
Degree Days  
Heating Degree Days 24 31  
Month to date heating degree days 319  
Since 1 July heating degree days 5667  
Cooling Degree Days 0 0  
Month to date cooling degree days 0  
Year to date cooling degree days 0  
Moisture  
Dew Point 13 °F    
Average Humidity 33    
Maximum Humidity 55    
Minimum Humidity 16    
Precipitation  
Precipitation 0.00 in 0.03 in 0.93 in (2014)
Month to date precipitation 0.21  
Year to date precipitation 1.20  
Sea Level Pressure  
Sea Level Pressure 30.15 in    
Wind  
Wind Speed 20 mph (West)    
Max Wind Speed 32 mph    
Max Gust Speed 40 mph    
Visibility 10 miles    
Events      
T = Trace of Precipitation, MM = Missing Value Source: NWS Daily Summary

Daily Weather History Graph

Daily Weather History Graph

Search for Another Location

Airport or City:

Trip Planner

Search our weather history database for the weather conditions in past years. The results will help you decide how hot, cold, wet, or windy it might be!

Date:

Astronomy

Mar. 10, 2013 Rise Set
Actual Time 7:43 AM MDT 7:21 PM MDT
Civil Twilight 7:13 AM MDT 7:51 PM MDT
Nautical Twilight 6:39 AM MDT 8:25 PM MDT
Astronomical Twilight 6:04 AM MDT 9:00 PM MDT
Moon 6:47 AM MDT (3/10) 6:32 PM MDT (3/10)
Length of Visible Light 12h 37m
Length of Day
11h 38m
Waning Crescent, 1% of the Moon is Illuminated
Mar 10
Waning Crescent
Mar 11
New
Mar 19
First Quarter
Mar 27
Full
Apr 2
Last Quarter

Hourly Weather History & Observations

Time (MDT) Temp. Windchill Dew Point Humidity Pressure Visibility Wind Dir Wind Speed Gust Speed Precip Events Conditions
12:53 AM 33.1 °F 22.2 °F 15.1 °F 48% 30.27 in 10.0 mi West 17.3 mph - N/A   Clear
1:53 AM 30.0 °F 20.0 °F 15.1 °F 54% 30.27 in 10.0 mi West 12.7 mph - N/A   Clear
3:53 AM 32.0 °F 19.2 °F 14.0 °F 48% 30.25 in 10.0 mi West 23.0 mph - N/A   Clear
4:53 AM 33.1 °F 20.1 °F 14.0 °F 46% 30.25 in 10.0 mi SW 25.3 mph 34.5 mph N/A   Clear
6:53 AM 30.9 °F 17.5 °F 12.9 °F 47% 30.27 in 10.0 mi West 24.2 mph 29.9 mph N/A   Clear
7:53 AM 30.9 °F 17.2 °F 12.9 °F 47% 30.30 in 10.0 mi WSW 25.3 mph - N/A   Clear
8:53 AM 33.1 °F 20.6 °F 12.9 °F 43% 30.29 in 10.0 mi WSW 23.0 mph 32.2 mph N/A   Clear
9:53 AM 37.0 °F 24.9 °F 12.0 °F 36% 30.29 in 10.0 mi WSW 27.6 mph 31.1 mph N/A   Clear
10:53 AM 41.0 °F 31.4 °F 10.9 °F 29% 30.25 in 10.0 mi West 21.9 mph 32.2 mph N/A   Clear
11:53 AM 44.1 °F 35.0 °F 10.9 °F 26% 30.23 in 10.0 mi WSW 24.2 mph 29.9 mph N/A   Clear
12:53 PM 48.0 °F - 9.0 °F 21% 30.19 in 10.0 mi SW 25.3 mph 35.7 mph N/A   Clear
1:53 PM 50.0 °F - 6.1 °F 17% 30.14 in 10.0 mi West 28.8 mph 38.0 mph N/A   Clear
2:53 PM 52.0 °F - 6.1 °F 16% 30.11 in 10.0 mi West 26.5 mph 32.2 mph N/A   Clear
3:53 PM 52.0 °F - 6.1 °F 16% 30.08 in 10.0 mi West 17.3 mph 24.2 mph N/A   Partly Cloudy
4:53 PM 48.9 °F - 10.0 °F 21% 30.07 in 10.0 mi WSW 16.1 mph - N/A   Mostly Cloudy
5:53 PM 46.9 °F - 12.0 °F 24% 30.07 in 10.0 mi WNW 3.5 mph - N/A   Overcast
6:53 PM 45.0 °F 41.8 °F 12.0 °F 26% 30.07 in 10.0 mi WSW 5.8 mph - N/A   Overcast
7:53 PM 48.0 °F - 10.0 °F 22% 30.03 in 10.0 mi West 16.1 mph - N/A   Overcast
8:53 PM 45.0 °F 37.4 °F 12.9 °F 27% 30.05 in 10.0 mi West 18.4 mph - N/A   Overcast
9:53 PM 46.9 °F - 15.1 °F 28% 30.02 in 10.0 mi WNW 19.6 mph - N/A   Overcast
10:53 PM 46.0 °F 38.0 °F 17.1 °F 31% 30.00 in 10.0 mi WSW 21.9 mph 27.6 mph N/A   Overcast
11:53 PM 45.0 °F 36.0 °F 19.9 °F 37% 30.02 in 10.0 mi West 25.3 mph 33.4 mph N/A   Overcast
12:53 AM 41.0 °F 29.5 °F 26.1 °F 55% 30.04 in 10.0 mi West 32.2 mph 40.3 mph N/A   Overcast